Wind_Speed
9 9 7 5 5 5 5 5 5 5 4 4 4 3 2 1 1 3 6 9 11 13 12 12 10 6 3 2 2 3 5 9 11 9 9 10 11 9 8 7 6 6 6 7 8 8 8 8 9 9 8 5 3 2 2 2 1 2 3 2 3 3 4 5 6 6 3 5 7 8 8 4 9 13 11 12 12 16 19 26 26 24 28 30 32 32 33 34
10 9 7 6 7 6 6 6 6 5 4 4 4 4 4 3 4 7 10 11 11 11 12 12 11 8 5 4 3 4 5 9 10 11 13 13 12 11 9 8 7 7 6 7 7 7 7 7 7 6 4 2 1 1 1 1 2 2 3 1 4 5 5 5 6 5 4 7 10 14 13 6 10 12 9 7 10 11 12 22 23 21 25 25 25 25 29 32
10 9 8 8 8 7 7 6 6 5 5 5 5 5 5 5 6 9 9 9 8 8 10 11 10 8 7 5 4 5 6 7 10 13 14 13 13 12 10 9 8 8 7 7 8 8 8 8 7 7 4 1 1 1 2 2 1 1 3 1 6 6 5 7 8 9 10 12 11 14 11 8 15 13 7 5 10 12 9 16 16 16 24 26 27 24 24 27
9 9 10 10 9 8 7 6 6 6 7 7 6 6 5 5 5 7 7 5 5 7 9 11 10 9 8 6 6 8 7 5 10 13 12 13 14 13 11 10 8 8 8 8 8 8 8 7 7 7 4 2 2 2 2 3 1 1 3 4 5 3 3 9 10 11 13 12 12 14 9 11 17 11 7 5 7 10 12 18 16 18 27 31 33 30 26 27
10 11 11 10 9 8 7 7 8 9 9 8 7 5 4 3 4 5 4 3 4 6 8 10 10 9 8 7 9 11 6 1 8 11 11 13 14 13 12 10 9 8 8 8 8 8 8 6 6 4 3 2 3 3 1 2 2 1 4 6 5 4 3 11 11 11 13 12 13 13 8 11 13 9 10 7 4 10 19 27 26 27 33 35 36 34 30 29
12 12 11 10 9 8 8 9 10 10 9 8 7 5 4 3 5 4 2 3 4 5 7 8 9 9 9 8 8 11 5 3 7 10 10 12 13 14 13 11 10 8 8 8 8 8 7 5 3 2 2 2 1 1 1 1 0 2 5 4 5 5 6 12 13 13 14 14 14 11 8 11 11 10 11 9 14 23 29 33 32 33 33 33 33 31 29 27
13 12 11 9 9 9 10 11 10 10 9 8 7 6 5 4 4 3 4 5 5 6 7 9 10 10 10 6 6 11 12 8 9 9 9 11 11 13 12 11 11 9 8 8 7 7 6 4 2 2 3 3 0 2 1 3 2 3 4 4 5 8 10 14 16 17 18 17 19 15 11 11 10 9 8 13 25 29 29 28 28 29 29 30 30 31 31 28
12 11 10 9 10 10 11 11 10 10 9 8 7 6 5 5 5 5 6 7 6 7 8 10 11 11 10 5 5 12 15 10 11 9 8 9 9 10 11 12 11 10 8 6 6 6 4 3 3 3 2 1 2 3 2 4 2 5 4 5 5 8 12 17 18 16 16 17 18 13 10 14 15 10 9 20 28 24 22 23 25 28 30 31 31 32 31 30
12 11 11 11 11 11 10 10 10 9 9 8 7 6 6 7 7 8 8 7 7 9 11 12 13 13 11 5 5 10 12 11 11 10 8 7 7 8 10 11 11 10 8 5 6 5 4 4 3 1 2 3 4 2 2 1 2 5 5 6 7 12 16 17 15 11 14 14 11 5 7 13 12 7 10 19 21 19 22 25 27 28 28 26 25 25 25 27
12 11 11 11 10 10 9 9 9 9 9 9 8 7 8 9 9 10 9 8 9 10 12 12 13 16 14 10 11 9 10 13 13 11 10 8 5 6 8 9 11 12 9 8 7 6 6 4 3 1 3 2 3 3 2 2 3 4 6 10 10 15 15 11 9 9 14 10 8 6 8 11 6 1 6 15 19 20 27 31 28 25 22 21 20 19 20 21
12 12 12 11 10 9 8 9 9 9 9 9 9 8 7 8 8 8 7 7 9 10 11 11 10 15 18 20 20 10 11 16 16 14 11 8 5 5 6 7 9 11 10 10 10 9 9 6 5 3 2 2 2 2 3 1 6 5 7 10 10 11 7 6 8 10 14 7 12 13 9 8 2 5 6 16 22 23 31 33 28 25 22 21 20 20 20 19
12 12 11 10 9 8 9 9 9 8 9 9 9 7 6 7 7 6 6 6 8 10 10 9 9 11 14 22 21 13 14 17 16 15 11 7 5 4 5 6 6 8 9 9 11 11 10 9 8 6 4 5 2 1 1 5 8 3 5 5 8 11 2 6 11 11 11 6 16 17 7 7 1 6 10 16 24 30 35 35 32 30 27 25 25 27 26 23
12 11 10 9 8 9 9 9 8 8 9 9 9 8 7 6 6 6 5 6 8 8 8 8 10 11 12 15 17 15 15 16 16 13 8 5 4 4 5 6 4 7 8 9 11 10 10 10 7 5 10 8 2 2 3 6 7 2 4 3 5 10 3 6 11 11 9 6 17 15 4 7 5 10 12 11 23 34 37 36 34 33 31 32 34 36 36 32
10 10 9 9 9 10 9 8 7 7 8 9 9 8 8 8 7 6 6 7 8 7 7 7 7 10 12 11 14 17 15 16 17 12 7 5 5 5 5 5 5 6 7 7 8 8 7 8 10 8 10 13 5 2 4 6 7 3 3 3 4 6 4 8 10 8 6 5 15 11 2 7 10 16 16 14 24 29 28 32 33 35 39 42 43 43 43 41
9 10 9 9 10 10 9 7 6 7 7 8 7 7 7 7 6 7 7 9 10 8 7 7 6 6 8 8 11 17 19 21 21 16 11 8 7 6 4 3 4 5 5 5 6 7 6 5 13 13 9 16 14 4 4 5 5 4 4 4 4 3 6 11 8 5 5 5 10 8 2 7 9 15 23 26 28 26 23 27 33 38 42 44 44 45 46 44
10 10 10 10 10 10 11 10 9 8 7 7 8 7 6 6 7 8 9 11 13 12 9 8 7 7 6 6 9 17 23 26 25 17 11 8 8 8 3 1 2 4 6 7 7 7 7 7 11 14 12 15 13 5 4 5 5 4 4 3 5 3 5 10 5 4 5 5 6 6 1 6 7 15 28 32 31 30 28 29 34 37 38 41 43 47 50 48
11 11 11 11 10 11 11 12 12 10 9 8 7 6 6 6 5 6 5 6 8 10 12 9 5 6 9 10 11 16 21 25 27 19 10 8 8 8 4 2 1 5 7 10 11 9 9 9 8 8 11 9 4 4 6 6 5 4 4 2 4 3 4 7 5 4 9 5 4 4 2 8 8 14 26 31 34 34 29 29 32 34 37 40 43 47 49 50
12 11 11 9 9 9 8 9 9 8 8 8 9 12 14 13 11 10 6 4 4 5 9 12 6 5 7 15 16 15 13 19 29 24 13 8 6 8 6 5 2 6 4 6 11 13 10 8 7 3 6 6 5 7 6 2 3 4 4 3 4 3 3 5 6 5 10 7 6 4 3 10 11 11 18 30 35 32 28 29 32 34 38 40 42 44 46 48
12 10 9 8 7 7 7 7 8 8 11 15 18 21 22 23 24 24 23 20 17 8 4 11 11 4 1 15 20 15 8 13 28 29 20 13 7 8 10 7 6 5 3 4 8 14 9 6 8 4 6 6 4 3 3 4 5 6 5 3 5 5 6 8 8 4 6 7 8 3 3 10 12 11 15 26 32 32 32 33 35 36 38 41 42 43 44 46
11 9 8 8 8 9 10 11 11 11 14 15 15 14 13 14 16 18 26 31 27 17 12 13 14 7 3 12 21 19 10 9 25 33 28 22 9 7 14 9 8 12 8 1 4 9 8 6 6 3 5 6 6 4 5 4 4 4 2 3 6 5 7 9 7 5 4 5 6 1 3 9 10 10 12 22 31 32 31 32 34 35 36 39 41 43 44 44
10 8 8 10 11 13 15 16 14 11 9 6 6 7 7 6 6 8 15 22 21 18 20 20 18 15 10 13 21 22 15 12 25 35 30 25 15 8 14 10 6 11 7 3 2 4 6 7 4 5 7 6 5 3 3 3 2 2 2 3 5 4 7 10 6 4 4 5 5 3 7 11 7 9 11 20 25 23 25 27 29 33 35 37 39 42 43 44
10 8 9 13 15 17 18 18 16 13 10 7 8 11 11 10 11 10 11 12 14 17 18 21 23 23 17 15 19 22 24 21 26 36 31 26 22 12 12 12 6 4 6 4 2 4 6 3 6 7 5 2 1 2 1 2 2 2 1 1 4 4 6 10 3 2 3 3 5 5 7 10 5 9 10 16 17 17 25 27 27 32 35 37 39 40 43 47
9 9 12 15 16 17 18 18 16 13 11 11 12 12 10 8 7 6 7 7 10 18 18 19 24 28 24 19 19 21 27 22 20 33 34 25 22 15 11 10 5 3 6 6 5 3 4 2 5 3 2 2 2 4 5 3 0 1 1 1 5 4 3 6 2 3 7 3 4 5 4 5 3 6 8 13 15 18 25 28 31 34 33 34 35 37 42 45
9 11 14 15 14 14 15 16 14 12 11 11 13 12 9 5 3 1 3 3 4 14 19 17 21 29 26 22 21 16 19 20 18 29 31 23 19 11 7 6 4 5 5 2 6 5 1 4 3 2 5 6 4 5 6 5 5 3 4 3 4 6 2 6 5 8 8 1 2 5 4 2 2 4 5 8 12 18 25 30 33 35 34 34 36 38 41 40
11 13 14 13 11 9 10 11 12 12 12 12 13 15 11 6 4 1 1 3 2 12 18 15 16 25 25 23 21 9 8 16 20 26 25 20 17 7 4 6 5 5 5 1 4 3 2 4 3 3 4 7 5 5 4 3 6 6 4 5 3 8 8 8 8 8 6 3 2 3 5 4 1 6 5 6 10 16 22 26 29 33 35 36 37 38 39 38
12 13 12 10 8 5 6 7 10 10 10 12 13 16 14 7 4 1 1 5 3 9 14 13 12 17 20 23 22 7 4 10 15 24 24 17 16 8 3 5 5 3 4 1 2 1 2 4 4 3 3 5 6 4 1 2 5 6 3 4 4 7 9 9 6 4 3 4 4 2 2 5 3 4 4 5 10 14 17 20 24 31 34 35 36 38 39 40
12 12 11 8 5 4 5 7 8 8 8 11 13 15 13 8 2 1 2 5 5 6 9 11 9 12 14 18 22 9 2 10 11 20 27 17 13 13 7 4 3 2 2 1 3 1 2 6 6 5 4 5 6 5 2 3 3 5 4 1 8 10 8 6 2 1 3 4 4 2 3 3 4 2 3 3 7 14 16 15 19 27 32 33 34 37 39 40
11 11 9 6 3 2 6 7 6 7 8 10 13 14 12 7 1 1 4 5 4 5 6 8 7 11 12 11 19 14 3 10 9 12 24 20 12 11 10 4 1 3 3 4 4 4 2 3 4 4 5 5 4 4 3 4 0 7 5 4 9 8 4 2 3 2 2 3 5 5 1 1 6 2 4 4 7 14 15 13 14 21 29 32 32 36 39 41
11 10 7 4 2 2 6 7 6 6 8 10 13 12 9 6 1 1 6 4 3 5 4 8 8 14 17 9 13 16 8 9 9 9 18 22 15 8 5 5 1 3 3 3 1 4 2 2 1 2 2 3 5 6 3 5 3 9 7 7 6 1 2 2 3 2 2 2 4 6 1 1 6 3 5 6 8 11 11 9 11 18 27 31 31 34 38 40
10 9 6 4 2 3 5 6 7 7 9 12 13 10 6 4 2 5 6 1 2 5 7 8 6 12 18 9 8 16 10 7 12 13 14 19 23 17 6 5 7 3 4 4 1 3 4 2 2 1 2 3 5 8 3 7 5 8 7 7 6 3 3 3 2 3 3 3 6 7 2 2 5 3 4 5 4 4 6 7 11 17 26 31 32 32 34 38
9 8 6 4 4 4 6 7 8 8 10 12 11 8 4 4 5 7 4 2 2 6 7 6 5 8 12 6 4 11 8 7 13 14 11 12 20 21 10 6 9 6 6 7 5 7 6 1 1 3 3 1 3 6 3 3 2 5 5 5 7 6 3 4 5 4 4 6 7 5 2 3 4 2 3 3 1 3 5 6 9 15 22 28 31 30 31 35
7 6 6 6 7 8 9 10 10 10 11 11 8 6 2 4 6 3 1 5 3 3 3 3 4 5 6 3 3 7 5 6 10 8 5 4 6 9 7 4 4 5 5 5 5 8 6 2 4 3 1 1 2 5 6 3 5 6 5 6 6 5 5 5 6 3 2 7 8 3 1 1 3 2 1 3 1 4 6 9 10 14 23 28 31 30 29 32
5 5 6 8 9 11 11 10 10 9 8 7 4 2 5 6 3 1 3 4 1 2 2 3 4 5 5 4 5 6 3 3 7 5 1 2 4 3 4 4 4 4 3 2 3 6 6 5 6 4 1 2 4 5 7 6 6 6 4 3 4 3 5 7 6 4 5 9 8 2 1 3 2 1 2 3 3 5 8 13 15 17 23 27 29 29 28 30
4 4 7 9 11 12 11 11 9 5 4 3 2 4 9 6 0 1 3 3 2 3 3 2 6 6 3 3 4 5 3 2 6 6 3 4 5 4 4 6 7 4 1 1 2 3 5 6 5 3 2 5 4 2 2 4 5 4 2 3 2 2 2 5 5 4 8 11 10 5 1 4 3 1 5 5 3 5 9 13 17 20 23 26 28 30 30 31
3 6 8 9 10 9 8 6 3 1 1 4 8 8 8 3 3 0 2 4 2 4 4 3 4 5 4 3 4 3 3 2 5 6 4 4 3 2 3 4 5 4 3 3 2 0 3 5 7 3 3 3 3 2 1 2 4 2 2 2 3 0 3 3 5 6 6 8 7 5 3 2 1 2 3 4 2 3 8 12 17 20 24 27 28 29 29 31
4 5 6 7 6 5 4 3 5 2 3 7 11 7 3 2 2 2 1 2 2 3 5 6 5 5 5 5 4 5 2 2 4 5 3 2 1 1 2 1 2 4 3 1 1 1 3 6 9 8 6 1 2 4 4 3 3 2 2 3 4 3 5 2 6 4 3 6 5 3 4 1 1 3 3 3 5 5 9 15 19 23 27 28 27 27 29 30
8 8 9 10 10 10 8 8 8 5 8 14 11 3 2 2 2 3 2 3 2 1 3 4 3 3 4 3 5 7 6 3 4 5 3 2 1 1 1 0 1 3 3 1 2 1 0 6 8 4 4 4 4 6 6 1 1 1 4 6 4 1 3 2 3 3 4 7 5 4 9 8 4 3 3 4 9 11 13 17 21 26 29 29 30 32 32 32
11 14 16 16 15 10 8 11 7 7 16 18 8 2 2 1 2 3 3 3 2 1 5 3 1 1 0 1 4 6 6 5 4 4 3 3 2 2 3 2 1 3 4 1 1 1 1 4 7 1 3 9 8 5 4 2 2 2 3 5 3 2 3 2 2 5 6 8 6 6 11 9 4 2 3 7 12 14 15 16 18 22 27 30 34 37 39 38
8 12 17 18 17 13 8 7 6 10 18 12 2 2 1 2 1 2 4 3 2 1 5 1 0 2 0 1 3 5 3 2 3 4 2 2 4 2 4 2 1 4 5 2 3 2 1 1 6 3 1 7 6 5 5 6 2 2 2 4 3 1 3 3 2 3 5 8 8 8 10 7 2 2 3 7 9 10 12 13 13 16 25 32 36 40 43 45
5 8 11 12 14 17 10 10 15 19 15 4 3 2 0 1 1 2 3 3 1 2 2 1 1 2 2 1 1 2 2 1 2 2 1 2 3 3 4 3 2 5 5 3 3 1 1 0 4 5 3 4 4 3 4 5 4 4 4 4 5 2 1 3 2 1 2 6 7 7 9 7 1 3 3 6 7 7 10 11 11 16 24 32 36 39 42 45
6 7 9 10 8 7 8 15 18 15 6 2 3 2 1 0 1 4 4 2 2 3 1 3 3 0 1 2 2 1 2 3 1 1 2 2 2 3 5 3 3 6 4 3 3 2 1 0 3 7 6 5 6 5 2 5 5 4 3 2 3 2 2 4 4 1 1 3 6 6 8 7 1 3 4 5 7 8 11 14 15 20 28 33 36 39 42 45
8 5 8 14 11 4 9 15 12 6 4 4 3 2 1 1 2 5 5 3 2 2 2 3 2 1 1 1 3 1 2 3 1 1 2 1 1 2 3 6 7 6 2 2 2 1 0 1 1 7 6 5 10 3 11 15 13 10 5 2 1 1 3 1 5 4 3 5 6 5 7 8 2 4 4 7 13 13 15 19 19 25 34 36 39 43 46 48
16 10 6 9 10 8 13 11 7 6 6 2 2 3 3 2 3 4 4 4 2 2 3 2 1 1 1 1 1 1 2 2 2 2 2 2 2 2 3 8 11 6 2 1 2 2 1 2 2 7 6 4 7 0 11 11 9 9 5 3 2 1 1 3 3 3 3 5 4 4 8 8 1 2 7 19 23 18 16 22 27 32 38 39 42 46 48 50
24 22 18 10 2 4 10 6 2 4 3 2 4 5 4 4 5 4 3 4 3 2 2 1 1 2 1 0 1 1 3 2 1 2 2 1 2 2 5 11 9 5 4 1 1 4 2 0 2 5 8 9 8 6 3 2 3 4 2 3 4 4 4 1 1 2 2 3 6 6 8 8 5 8 17 25 24 16 17 29 36 36 37 40 43 47 50 51
16 19 25 23 15 14 13 8 7 6 2 3 5 4 3 3 4 5 3 3 4 3 2 2 2 1 2 1 1 2 2 2 2 2 2 3 2 1 8 12 7 5 4 1 2 2 1 1 2 2 4 9 9 8 9 8 5 1 2 4 5 7 8 4 1 2 3 6 10 8 8 11 14 16 20 21 16 13 20 34 40 39 39 41 43 48 52 52
8 7 12 20 24 26 21 11 9 7 3 4 3 3 3 1 2 5 4 3 6 5 3 3 3 2 2 4 4 4 2 0 2 2 3 4 3 2 9 10 9 7 5 2 1 0 2 0 2 4 3 6 7 10 11 8 6 4 2 4 3 4 5 4 2 3 6 10 10 8 11 19 21 20 20 17 13 14 20 30 37 40 42 43 45 49 52 53
8 3 2 6 12 18 17 13 11 7 3 3 3 1 3 2 3 4 4 3 5 5 2 2 4 3 2 5 5 3 5 4 2 1 3 4 4 4 7 4 7 9 7 3 3 2 3 3 2 5 6 8 9 13 12 7 4 3 2 3 2 2 4 5 3 6 10 9 8 11 18 21 21 22 20 15 14 16 21 28 36 40 41 43 46 49 52 55
7 4 4 4 3 5 7 9 12 11 6 4 3 1 3 4 3 2 2 3 4 5 4 2 4 5 0 1 3 2 6 7 5 2 2 3 4 6 6 1 4 10 11 4 3 4 3 2 2 3 6 9 10 13 10 5 2 2 4 3 3 4 5 5 5 9 10 8 11 18 23 22 22 21 16 14 18 23 27 34 41 43 43 45 46 49 53 52
13 10 8 9 7 5 5 3 7 11 9 5 3 2 2 3 3 1 2 3 3 5 6 2 5 6 1 2 2 1 2 3 5 5 2 2 4 3 4 2 1 9 14 6 3 5 3 3 4 2 5 8 9 8 6 5 3 4 3 2 4 5 5 6 8 11 12 13 16 21 23 22 18 14 14 23 34 38 39 42 44 45 46 46 48 51 51 45
12 11 11 16 14 9 6 3 3 7 6 5 4 2 1 3 0 2 2 1 2 4 5 3 6 7 1 3 3 2 3 4 6 6 3 2 4 1 1 2 2 8 13 6 2 7 6 4 5 4 5 6 5 3 6 5 4 4 1 3 7 10 9 7 8 10 11 15 17 19 21 18 12 12 21 36 45 44 40 40 42 47 50 48 49 51 45 38
17 16 17 18 10 7 6 4 3 4 3 4 2 1 1 2 2 2 1 1 1 1 2 2 5 4 1 2 4 6 9 7 10 13 11 9 7 4 2 0 1 4 8 4 2 6 6 5 5 5 6 7 6 10 13 8 2 4 1 4 8 12 11 9 8 9 13 18 20 19 17 11 9 16 25 34 40 37 34 35 39 45 51 52 49 44 39 41
19 16 12 12 6 6 6 4 4 5 2 2 1 2 2 1 2 1 0 1 1 1 3 2 2 3 2 2 5 11 17 16 17 20 18 16 15 12 10 6 1 1 1 2 2 2 3 3 5 4 5 9 12 14 14 9 4 2 1 0 7 14 16 13 10 11 15 16 15 16 13 10 14 20 21 24 29 30 33 37 40 43 50 52 44 37 40 49
Wind_Direction
160 159 155 143 127 117 110 106 100 98 99 106 116 118 109 86 300 313 332 350 354 355 3 16 29 36 37 27 30 39 29 17 9 16 31 29 17 3 350 338 329 315 307 298 287 281 286 292 290 290 286 282 307 326 334 347 108 126 97 123 250 208 206 197 191 211 201 278 286 299 305 266 288 303 302 300 271 264 274 273 270 264 268 275 281 284 280 280
157 153 146 130 119 116 109 103 99 95 95 93 80 68 49 20 346 340 348 357 359 8 22 31 35 42 52 51 36 20 16 11 10 26 33 23 12 5 354 343 338 332 324 316 313 315 320 327 328 325 310 268 294 346 21 44 78 101 110 147 239 204 215 211 211 229 234 281 287 291 296 272 275 295 309 299 277 281 284 284 283 277 285 295 298 296 287 283
151 143 131 121 117 113 109 103 99 94 92 91 76 64 44 21 356 348 352 357 10 29 36 39 40 42 43 33 12 355 347 355 13 27 25 14 9 6 356 348 346 343 341 340 340 343 342 345 351 354 355 29 24 22 78 54 42 106 117 238 246 215 248 253 248 260 266 279 285 288 294 277 280 290 288 274 294 298 274 280 284 280 298 311 314 313 302 292
139 128 119 116 114 109 105 97 93 91 88 85 76 64 45 21 350 347 356 5 35 45 42 46 42 37 31 21 5 339 321 345 20 22 15 10 6 3 360 353 349 348 349 350 349 348 342 341 347 354 7 42 34 40 67 34 26 159 148 206 230 193 275 274 269 283 283 278 267 277 297 291 291 289 262 263 311 300 276 287 287 286 302 309 309 310 305 297
125 119 115 113 111 104 96 91 91 89 83 77 70 59 42 6 331 352 14 30 57 50 48 49 38 30 19 14 7 348 335 358 12 15 11 9 6 2 0 354 348 348 350 349 351 353 344 336 336 353 21 42 31 33 62 41 66 207 218 222 230 172 252 282 286 293 288 281 271 277 288 287 296 291 267 252 231 266 288 301 301 298 303 304 303 304 301 296
119 115 114 111 105 99 96 95 90 82 76 68 59 46 29 347 336 7 55 87 74 58 50 40 25 17 5 4 9 8 46 87 4 13 11 5 7 3 1 354 349 343 344 350 350 349 342 336 340 11 47 55 46 56 140 298 108 243 267 260 258 223 236 283 293 294 293 286 275 272 278 287 300 304 289 250 245 274 298 307 304 303 306 304 302 301 299 296
119 116 113 108 103 104 101 95 85 75 67 57 48 36 20 358 7 49 97 95 75 54 40 25 15 9 4 8 23 35 62 63 14 16 8 2 6 5 6 1 354 344 340 348 349 347 341 350 38 86 75 53 113 199 248 291 224 183 259 271 270 252 246 281 294 295 298 288 278 277 280 287 282 294 311 281 279 294 310 314 311 311 312 308 304 303 302 300
120 117 113 109 109 108 99 89 77 67 57 46 39 29 27 30 47 78 96 89 65 43 29 18 19 18 18 28 57 48 48 36 17 18 6 360 1 5 13 8 2 354 347 347 353 3 9 37 64 77 94 88 187 201 253 306 281 168 221 269 270 270 272 292 300 300 303 294 292 285 265 274 273 276 288 286 298 316 320 317 317 314 310 307 304 303 303 302
121 117 115 115 113 106 94 83 69 59 47 38 33 30 42 50 63 82 87 78 55 40 27 27 33 30 29 51 81 50 32 22 16 14 4 355 356 6 17 19 17 11 7 10 11 22 33 51 45 19 170 186 182 209 230 282 301 191 222 287 282 288 295 303 297 300 316 310 313 296 261 284 286 287 276 284 310 330 323 319 320 318 316 317 313 310 308 304
123 120 120 119 114 104 91 76 60 49 43 40 41 43 52 59 75 86 82 68 50 37 31 38 47 45 48 66 79 57 25 28 20 10 0 353 4 13 22 30 29 28 38 50 50 52 49 52 25 15 168 169 181 242 217 163 299 254 283 290 282 292 295 313 304 319 339 330 342 323 282 296 293 182 271 302 329 332 324 327 334 336 337 337 331 327 322 313
125 122 123 121 115 103 84 67 54 49 50 48 50 53 57 65 82 87 74 57 44 37 35 42 54 56 54 58 68 61 26 27 17 10 2 351 13 19 29 36 29 37 50 57 59 55 48 56 53 78 151 311 283 250 205 233 311 295 320 295 292 310 290 343 344 347 357 352 347 330 288 311 347 164 265 317 335 333 330 336 346 353 351 351 350 348 347 338
125 124 127 125 114 95 74 60 53 59 60 55 58 61 63 72 87 88 71 54 40 37 36 42 57 63 56 52 55 44 23 19 5 6 3 349 14 13 21 31 17 29 42 42 39 37 40 49 49 51 22 324 293 35 237 316 322 281 18 325 310 348 356 358 1 354 1 4 349 344 311 336 113 212 298 330 339 337 340 344 350 354 356 1 3 3 8 7
126 129 131 122 104 81 66 58 61 73 68 63 65 65 72 79 86 82 61 41 28 30 37 56 69 63 59 51 43 33 23 16 2 3 8 357 23 22 10 19 15 17 23 26 23 28 42 45 41 38 29 15 293 359 321 326 343 282 32 45 331 359 355 356 5 349 0 15 355 2 326 317 270 281 323 350 345 344 345 349 352 356 3 9 9 8 13 18
129 130 126 110 89 73 64 64 70 77 73 70 68 73 85 82 78 65 43 33 25 32 49 66 73 57 58 56 42 36 30 24 13 12 38 44 42 33 7 12 28 16 11 20 16 26 51 47 37 42 33 21 1 311 337 353 10 335 349 41 31 8 293 326 353 351 18 3 354 17 209 293 297 309 338 354 350 352 348 349 358 4 10 12 12 11 10 14
127 125 114 96 81 73 69 68 70 77 75 68 65 78 88 77 65 51 49 51 46 53 63 65 63 51 56 53 41 36 32 31 23 20 35 45 38 27 2 356 27 26 19 29 21 32 56 49 38 42 24 14 20 31 0 358 12 19 7 346 357 12 294 317 346 52 50 323 349 39 214 289 290 304 334 345 349 358 355 359 10 12 14 14 13 13 10 10
124 118 105 92 84 81 77 69 70 80 79 71 69 78 85 76 62 59 71 69 59 58 60 66 71 68 55 33 31 31 29 28 23 19 19 26 26 21 36 31 33 64 63 58 40 41 55 49 47 43 30 21 22 35 37 13 352 11 38 314 302 337 320 319 335 67 35 328 347 44 253 284 285 303 328 344 356 5 8 12 16 16 17 17 16 16 15 12
124 115 102 94 91 89 81 70 68 72 77 80 74 73 78 70 49 44 58 58 50 52 53 58 90 92 54 30 19 13 18 24 21 19 17 16 17 23 58 61 68 122 94 61 40 43 54 46 52 37 31 38 10 24 52 17 331 331 16 350 280 284 307 317 313 353 19 14 330 8 234 259 276 297 323 352 11 16 20 19 19 22 22 21 20 18 17 15
124 114 104 99 98 91 76 64 59 65 80 91 91 87 82 75 67 59 61 65 51 52 49 40 51 118 40 14 6 356 5 22 19 20 23 13 10 23 30 11 46 166 145 48 29 34 43 37 55 50 19 29 10 40 65 313 272 279 310 317 303 294 274 283 282 328 14 3 311 331 290 279 289 302 339 9 24 29 30 27 25 25 23 21 20 18 16 15
128 117 109 101 94 77 63 61 66 87 102 106 103 96 88 82 77 70 69 71 67 69 51 26 35 107 315 356 5 2 5 21 18 20 24 20 22 29 28 35 74 121 94 33 15 23 34 32 42 36 357 351 344 68 147 228 228 243 259 248 277 294 281 271 264 291 4 335 296 315 316 295 307 328 3 21 32 36 30 28 27 23 22 21 18 16 15 15
131 120 110 92 81 72 72 77 83 101 108 109 108 100 95 84 73 64 63 65 66 68 61 42 40 49 350 357 10 14 17 20 16 19 23 22 28 35 29 44 75 59 48 9 341 9 39 53 31 335 295 297 283 229 213 241 228 232 241 240 263 270 280 285 272 272 358 342 273 207 354 294 310 347 18 31 36 35 26 26 25 21 21 19 16 15 13 13
133 121 105 90 88 87 85 84 85 93 94 107 124 101 91 78 77 74 66 65 63 61 53 45 42 36 21 8 12 16 20 21 16 19 24 23 28 36 22 29 63 40 10 274 276 353 47 60 350 279 254 264 273 232 227 266 221 204 215 245 283 270 265 287 282 266 17 21 285 37 12 308 333 31 34 39 42 36 26 25 22 19 20 17 15 13 10 11
135 121 108 101 101 95 89 85 80 81 85 103 115 92 80 85 96 93 84 80 61 50 43 36 35 30 26 21 15 16 22 20 12 15 20 22 31 41 28 37 64 24 339 347 12 0 36 36 293 286 256 234 87 83 44 287 189 177 223 226 305 300 280 292 272 220 3 3 298 12 10 316 10 69 55 47 54 49 35 31 26 21 19 15 12 10 9 10
134 122 117 113 108 95 84 82 78 84 93 92 85 71 68 79 86 76 77 100 65 41 31 29 28 22 21 21 12 19 33 30 6 6 10 16 28 38 40 43 55 21 357 22 61 56 36 303 283 308 351 37 24 14 27 357 343 187 249 282 296 317 341 304 294 342 327 292 273 325 331 304 32 78 65 51 54 52 40 34 31 26 21 15 11 10 10 10
136 128 127 124 115 92 76 72 70 80 77 63 55 40 37 35 11 6 42 101 76 25 21 24 22 18 15 11 5 18 44 38 14 4 7 15 23 30 41 37 48 37 354 23 86 102 206 272 299 19 37 46 8 351 33 17 345 295 230 205 281 314 300 259 286 321 324 317 258 318 333 296 93 65 41 34 38 39 32 29 28 23 18 14 11 11 11 10
140 136 137 133 122 92 66 57 53 58 49 42 38 23 19 15 355 285 13 78 49 358 9 15 16 14 8 4 5 18 60 37 20 6 5 19 22 25 47 29 44 24 325 261 83 74 266 291 339 359 15 43 28 0 44 42 348 324 255 197 262 310 292 275 303 327 345 353 301 11 5 291 189 67 33 11 26 29 25 26 23 16 13 12 10 7 6 6
145 145 145 140 130 92 46 32 30 33 28 29 24 13 10 3 11 71 61 69 32 342 358 3 7 8 3 5 5 19 83 20 12 10 12 24 23 34 61 10 42 20 313 268 63 57 297 330 31 43 4 22 20 3 8 92 16 330 253 198 269 300 295 298 325 353 344 294 284 75 120 261 300 36 22 20 36 27 20 23 17 11 10 8 6 3 1 2
151 153 154 151 141 86 27 8 11 10 6 13 10 3 3 2 34 68 28 49 17 333 351 356 357 358 360 10 14 45 122 338 357 17 18 23 23 45 59 348 33 19 291 96 22 313 286 345 13 31 22 17 9 352 280 143 24 300 225 215 308 302 294 299 333 167 248 282 317 15 150 235 288 328 19 27 47 30 20 18 12 8 6 3 2 1 359 359
160 162 163 166 160 63 7 357 359 358 355 356 355 354 356 0 335 319 73 77 346 332 352 349 349 355 0 21 28 53 92 345 9 12 15 26 24 41 55 24 175 278 303 96 22 310 245 344 348 8 17 2 342 323 255 154 334 271 249 292 297 291 282 234 150 190 271 344 325 308 125 251 269 243 39 31 47 26 14 9 4 3 2 359 358 358 359 358
168 171 177 194 204 348 355 0 360 354 352 346 345 348 351 356 324 46 75 102 316 341 349 345 348 348 354 14 28 31 32 19 21 352 16 37 32 39 64 22 67 235 320 96 140 298 285 238 238 108 64 317 289 286 238 156 247 281 292 301 282 255 78 106 126 146 25 30 276 277 192 231 277 303 16 21 42 16 357 0 357 358 0 358 355 355 356 356
175 181 192 211 227 327 343 352 348 337 338 335 334 338 346 4 50 67 48 55 303 341 328 347 349 336 350 5 9 8 15 15 4 359 18 38 38 47 77 9 22 58 353 10 165 285 304 249 220 160 181 246 288 299 259 176 249 307 342 332 314 5 63 64 72 96 45 323 258 259 205 196 282 319 25 27 35 337 323 348 353 355 357 356 353 351 352 354
182 190 204 225 245 295 320 328 327 318 322 325 323 323 334 17 60 91 64 296 301 343 339 352 345 345 9 30 345 349 355 346 357 11 15 19 30 36 43 10 9 28 10 359 350 337 348 44 254 264 233 265 330 318 299 191 287 348 7 352 338 339 16 18 359 42 31 302 272 264 177 181 260 283 89 90 37 327 326 340 345 352 353 352 351 348 348 351
186 203 227 247 256 285 304 307 308 308 313 318 316 314 349 43 34 87 315 319 330 353 351 322 327 357 8 9 338 335 333 339 355 26 34 16 34 28 33 36 358 9 14 359 343 343 347 282 300 313 165 54 354 326 327 343 12 14 8 15 11 347 354 352 334 357 306 275 278 297 76 204 250 259 154 145 55 2 355 346 337 345 349 349 349 346 346 348
207 232 259 272 278 292 300 301 306 309 317 320 297 319 74 77 38 257 283 327 356 341 322 279 310 338 341 357 358 333 325 338 351 15 39 62 64 21 13 32 33 30 1 347 353 348 332 303 331 11 71 19 24 1 346 333 346 2 6 24 31 16 351 326 312 326 301 283 289 326 130 268 284 163 187 162 69 13 0 357 347 344 346 345 346 346 345 346
244 279 290 296 302 303 302 301 300 296 323 8 93 65 65 77 227 275 296 283 281 331 347 316 318 334 12 33 344 330 0 331 346 12 2 24 42 9 350 1 18 48 80 34 27 359 352 321 329 23 336 339 6 16 319 292 306 326 167 141 56 51 341 299 281 293 303 298 306 331 288 272 302 165 182 173 95 12 353 354 349 346 346 345 346 347 346 346
319 316 312 318 319 312 309 299 282 236 219 90 76 62 73 105 246 234 277 269 300 326 322 337 351 7 6 339 316 358 47 309 337 20 16 33 58 3 358 340 352 34 63 32 343 337 23 286 270 312 312 316 348 301 235 342 317 294 143 86 6 286 184 240 251 253 281 289 296 311 277 232 308 247 208 199 214 337 338 343 347 346 348 348 347 346 344 342
15 347 348 352 357 19 40 103 112 112 187 108 73 53 101 176 229 167 240 300 350 327 326 347 18 30 347 320 327 359 35 280 335 7 358 47 112 292 1 284 321 33 57 60 289 357 29 278 280 331 328 172 68 310 305 359 322 316 38 343 293 196 151 224 284 290 316 289 280 301 291 295 357 268 245 254 269 302 336 346 349 347 349 349 346 344 340 337
55 46 41 41 49 55 69 95 103 112 108 90 74 74 186 206 199 189 316 344 302 305 46 30 16 18 334 313 318 330 347 338 351 6 340 2 52 199 60 305 240 31 33 165 249 277 95 282 293 330 304 296 349 318 301 334 77 16 344 312 295 93 106 131 287 337 343 288 279 325 306 298 311 283 242 295 320 335 344 348 349 346 346 344 341 341 338 335
55 57 49 42 42 41 67 89 101 118 93 78 69 119 150 257 223 234 300 341 287 352 65 74 357 30 291 299 305 310 340 349 353 5 341 344 0 135 88 21 218 16 359 98 184 309 120 296 299 253 248 299 329 353 331 337 104 124 295 319 2 347 327 2 344 325 316 291 289 310 300 289 273 281 327 331 331 337 341 345 346 342 342 340 337 338 337 336
47 62 47 37 44 45 60 109 127 102 85 74 71 124 133 253 260 274 303 321 269 71 62 65 309 22 282 203 285 298 331 335 331 352 11 7 348 60 77 26 339 3 351 118 144 310 56 320 293 285 287 310 336 26 350 331 12 51 10 9 18 234 268 317 328 307 299 297 302 299 294 294 238 196 303 312 312 325 334 341 341 334 336 337 337 338 337 335
58 75 41 33 62 63 73 120 99 79 76 86 155 130 262 250 293 322 335 337 308 76 50 211 135 0 317 299 289 296 322 294 293 322 346 356 335 16 52 43 358 352 353 86 103 341 28 68 279 289 329 1 352 339 331 339 358 14 39 26 343 327 294 297 283 112 311 301 303 295 286 289 226 166 247 282 295 313 327 335 334 328 332 336 337 336 334 330
88 85 29 27 68 74 90 95 73 60 68 87 99 106 342 35 7 357 7 8 35 59 102 160 137 93 315 341 327 290 301 307 294 261 293 331 345 9 29 45 6 342 0 49 33 10 24 113 265 298 332 359 315 295 48 72 76 60 69 64 326 350 33 320 302 340 9 293 285 290 289 288 281 169 225 280 306 311 328 335 329 328 332 335 335 333 330 327
84 81 21 44 70 106 98 77 40 26 87 74 59 79 66 58 12 12 14 11 15 27 64 116 105 95 150 288 305 291 309 300 275 322 301 242 297 338 20 34 10 346 20 57 323 300 108 108 269 290 294 270 272 290 96 102 97 83 73 58 353 60 86 351 299 323 334 294 282 284 291 295 288 181 223 318 319 306 322 330 324 329 334 334 331 330 329 327
68 58 27 61 80 89 89 74 11 24 72 89 106 71 56 68 37 13 11 18 8 352 22 61 44 34 127 273 331 329 320 282 228 330 338 244 296 326 26 17 2 353 44 60 314 338 28 77 354 301 297 275 269 70 107 117 100 80 62 42 52 65 126 208 251 342 322 289 306 300 283 290 297 193 310 327 320 307 319 330 330 332 332 329 327 328 328 327
70 59 48 52 96 103 90 94 84 70 68 100 82 45 37 66 44 18 7 13 8 15 35 28 24 24 358 105 117 265 324 345 285 334 3 275 305 25 31 13 7 21 49 122 285 350 333 309 30 333 330 336 334 357 17 338 42 76 70 39 55 36 5 276 230 0 287 293 336 311 277 291 328 335 325 324 321 320 328 330 331 330 326 324 325 326 326 325
71 60 52 56 81 99 93 104 123 118 124 88 61 15 18 52 33 24 29 27 28 39 42 349 313 325 340 34 39 328 2 20 316 330 3 306 276 52 21 17 39 57 36 153 206 312 288 215 97 69 335 322 324 324 318 325 349 60 91 40 32 31 21 3 324 311 286 311 320 294 272 297 313 320 320 319 325 332 328 328 330 327 323 323 324 324 324 322
70 63 46 53 71 81 80 85 100 109 131 104 68 11 25 28 343 12 25 42 32 29 49 13 327 308 10 29 18 341 329 313 310 328 328 300 275 351 11 29 67 58 19 6 335 19 105 201 193 168 227 274 281 285 297 325 330 303 18 32 14 28 22 5 359 314 299 303 295 278 292 305 310 315 318 323 333 330 324 327 328 324 322 323 322 321 321 319
71 62 19 43 60 66 64 59 65 85 138 126 100 4 7 329 311 359 23 36 20 16 55 56 26 36 7 10 24 328 309 336 352 309 295 281 269 324 355 61 80 35 16 11 3 64 82 339 255 191 228 255 269 282 295 328 324 285 32 43 0 0 13 13 357 305 303 300 286 299 309 307 308 314 321 330 335 327 324 326 324 319 319 320 319 319 318 316
85 97 81 80 69 48 50 47 58 74 82 92 118 123 15 5 350 6 354 340 4 21 30 33 32 44 95 355 57 334 318 342 343 308 301 305 308 338 345 142 101 27 23 32 27 71 105 285 252 199 253 265 267 278 295 314 291 132 88 47 5 9 6 357 318 295 297 289 289 305 309 306 307 315 324 334 330 323 320 321 319 317 318 319 319 318 316 316
107 107 79 81 94 99 107 88 69 73 60 50 81 72 58 52 20 261 259 325 352 14 30 21 338 357 32 164 104 2 324 341 316 301 276 311 320 330 330 288 188 17 22 36 29 46 76 268 274 268 286 279 262 267 291 285 235 119 88 26 13 2 341 326 304 292 288 284 290 302 306 305 308 317 327 329 326 322 319 319 320 319 319 320 319 316 314 315
114 113 107 103 93 74 79 80 62 74 48 29 64 56 151 148 17 288 229 78 347 342 23 19 316 333 62 151 159 216 248 215 243 262 227 279 314 241 233 261 248 351 12 34 3 17 28 326 314 342 324 295 270 302 323 291 201 143 91 23 7 343 327 320 312 304 298 296 301 307 308 308 315 330 329 326 325 321 318 321 322 320 319 319 317 313 313 317
111 118 120 110 85 22 34 43 41 78 38 8 79 164 234 189 210 281 242 169 172 298 346 331 310 327 46 135 179 248 276 254 242 260 258 257 264 234 220 232 127 354 4 27 349 7 25 341 329 9 347 315 331 351 339 330 109 124 44 5 0 343 330 321 322 323 315 311 313 316 313 309 321 332 327 323 320 317 316 319 319 318 317 316 313 311 314 320
112 121 121 105 83 9 20 25 27 67 75 340 122 184 242 259 232 190 3 288 258 286 297 276 302 339 347 322 305 305 308 302 288 286 279 262 251 245 255 270 274 310 336 68 21 17 51 1 338 1 340 320 333 339 330 329 15 40 285 347 1 346 331 318 321 323 317 316 318 317 312 312 323 328 324 319 318 316 315 316 316 315 313 310 309 312 317 320
Height
1508 1508 1509 1509 1509 1510 1510 1510 1510 1510 1510 1510 1510 1510 1510 1509 1509 1509 1508 1507 1507 1506 1506 1505 1503 1503 1504 1505 1505 1505 1505 1504 1504 1503 1502 1503 1504 1503 1502 1502 1501 1501 1501 1500 1500 1500 1500 1499 1499 1499 1499 1499 1499 1499 1499 1500 1500 1501 1504 1507 1507 1509 1507 1502 1501 1499 1497 1493 1491 1489 1489 1490 1485 1484 1483 1481 1480 1478 1476 1473 1471 1472 1469 1467 1466 1466 1465 1465
1508 1509 1509 1510 1510 1510 1511 1511 1511 1511 1511 1511 1510 1510 1509 1509 1508 1508 1507 1507 1507 1507 1506 1505 1504 1504 1505 1505 1505 1505 1505 1505 1504 1503 1503 1504 1504 1503 1503 1502 1502 1501 1500 1500 1499 1499 1499 1499 1499 1498 1498 1498 1499 1499 1499 1500 1500 1502 1506 1508 1505 1505 1502 1498 1498 1496 1495 1493 1490 1488 1488 1488 1485 1483 1483 1481 1477 1477 1476 1469 1467 1468 1465 1465 1465 1465 1464 1463
1509 1510 1510 1511 1511 1511 1511 1511 1511 1511 1511 1511 1510 1510 1509 1509 1508 1508 1507 1508 1508 1508 1507 1506 1506 1506 1506 1506 1506 1506 1505 1505 1505 1504 1505 1505 1504 1504 1503 1502 1502 1501 1500 1500 1499 1499 1499 1499 1498 1498 1498 1498 1499 1499 1499 1500 1501 1502 1505 1506 1502 1502 1500 1497 1496 1495 1493 1492 1490 1487 1487 1486 1483 1483 1482 1480 1477 1474 1473 1467 1465 1464 1462 1462 1463 1464 1463 1462
1510 1510 1511 1511 1512 1512 1512 1512 1512 1512 1512 1511 1511 1510 1510 1509 1509 1509 1509 1509 1509 1509 1508 1508 1507 1507 1507 1507 1506 1506 1505 1505 1505 1506 1506 1505 1505 1504 1503 1503 1502 1501 1500 1500 1499 1499 1499 1499 1499 1499 1498 1499 1500 1500 1500 1501 1501 1503 1503 1502 1500 1501 1499 1495 1494 1493 1492 1491 1489 1486 1486 1484 1481 1482 1481 1480 1478 1472 1467 1464 1464 1463 1461 1461 1460 1461 1461 1459
1510 1511 1511 1512 1512 1512 1512 1512 1512 1512 1512 1511 1511 1510 1510 1510 1509 1510 1510 1510 1509 1510 1509 1509 1509 1508 1508 1507 1507 1505 1504 1506 1508 1507 1506 1506 1505 1504 1503 1503 1502 1501 1501 1500 1500 1499 1499 1499 1499 1499 1499 1499 1500 1500 1501 1502 1502 1502 1501 1499 1499 1500 1498 1493 1492 1493 1491 1490 1488 1486 1486 1483 1480 1480 1479 1479 1479 1471 1464 1463 1463 1463 1461 1460 1459 1459 1458 1457
1511 1512 1512 1512 1513 1513 1513 1513 1513 1513 1512 1512 1511 1511 1510 1510 1510 1510 1510 1510 1510 1510 1510 1510 1510 1509 1508 1507 1507 1505 1504 1508 1509 1507 1507 1506 1505 1505 1503 1502 1502 1501 1500 1500 1499 1499 1498 1498 1498 1499 1499 1500 1501 1501 1501 1501 1502 1501 1499 1498 1498 1498 1496 1492 1491 1491 1490 1489 1487 1485 1484 1482 1481 1478 1477 1477 1474 1468 1464 1464 1463 1462 1461 1460 1458 1456 1455 1455
1512 1512 1513 1513 1513 1514 1514 1514 1513 1513 1512 1512 1512 1511 1511 1510 1510 1510 1510 1511 1511 1511 1511 1511 1510 1509 1508 1507 1507 1506 1506 1508 1509 1507 1507 1507 1506 1505 1503 1502 1501 1500 1500 1499 1499 1498 1498 1498 1498 1498 1499 1500 1501 1501 1500 1500 1501 1501 1499 1497 1496 1495 1494 1491 1491 1489 1489 1488 1484 1484 1483 1481 1481 1478 1476 1473 1468 1465 1465 1464 1463 1461 1460 1458 1456 1454 1453 1452
1512 1513 1513 1514 1514 1514 1514 1514 1514 1513 1513 1513 1512 1512 1511 1511 1510 1511 1511 1512 1512 1512 1512 1511 1510 1509 1508 1507 1507 1507 1507 1509 1509 1508 1507 1507 1506 1505 1504 1502 1501 1500 1500 1499 1499 1498 1498 1498 1498 1498 1499 1499 1500 1500 1500 1499 1499 1500 1498 1496 1495 1493 1492 1490 1489 1488 1487 1485 1482 1482 1482 1479 1479 1479 1477 1470 1465 1465 1465 1464 1462 1461 1458 1456 1454 1452 1451 1450
1513 1514 1514 1515 1515 1515 1515 1515 1514 1514 1514 1513 1513 1512 1512 1512 1511 1512 1512 1513 1513 1513 1512 1511 1511 1509 1508 1508 1507 1507 1509 1510 1509 1508 1507 1507 1506 1505 1504 1503 1502 1500 1499 1499 1499 1498 1498 1498 1497 1497 1497 1498 1498 1498 1498 1498 1497 1497 1496 1495 1494 1492 1490 1490 1488 1488 1486 1483 1481 1480 1479 1478 1478 1479 1475 1467 1466 1466 1464 1463 1462 1459 1456 1454 1452 1451 1449 1447
1514 1515 1515 1516 1516 1516 1516 1515 1515 1515 1514 1514 1514 1513 1513 1513 1513 1514 1514 1514 1514 1513 1513 1512 1512 1510 1509 1508 1506 1509 1512 1511 1509 1509 1507 1506 1506 1505 1504 1503 1502 1501 1500 1499 1499 1498 1498 1497 1497 1497 1496 1497 1498 1497 1498 1497 1496 1496 1496 1494 1493 1491 1490 1489 1487 1487 1485 1482 1481 1480 1478 1476 1477 1479 1474 1466 1467 1467 1463 1461 1459 1457 1454 1452 1450 1449 1448 1446
1515 1516 1516 1516 1516 1516 1516 1516 1516 1516 1515 1515 1515 1514 1515 1515 1515 1515 1515 1515 1515 1514 1514 1513 1513 1511 1511 1509 1507 1511 1513 1511 1510 1509 1507 1506 1506 1505 1505 1504 1503 1502 1501 1500 1499 1499 1498 1497 1497 1497 1497 1497 1497 1497 1497 1497 1496 1496 1496 1493 1492 1491 1490 1490 1488 1486 1485 1482 1482 1481 1477 1476 1478 1479 1474 1468 1467 1467 1463 1460 1458 1456 1454 1452 1450 1448 1447 1445
1516 1517 1517 1517 1517 1517 1517 1517 1517 1516 1516 1516 1515 1515 1515 1515 1516 1516 1516 1516 1515 1515 1515 1514 1513 1512 1512 1510 1509 1513 1513 1511 1511 1509 1507 1506 1506 1505 1504 1504 1503 1502 1501 1501 1500 1499 1498 1498 1498 1498 1498 1498 1497 1497 1496 1497 1497 1496 1497 1493 1491 1490 1488 1489 1489 1487 1487 1485 1484 1482 1474 1471 1477 1476 1472 1471 1469 1466 1463 1460 1457 1456 1454 1452 1449 1448 1447 1445
1517 1517 1518 1518 1518 1518 1518 1518 1517 1517 1517 1517 1516 1516 1516 1516 1516 1516 1516 1516 1516 1516 1515 1514 1514 1513 1512 1512 1513 1514 1513 1512 1511 1509 1508 1506 1505 1505 1504 1504 1503 1502 1502 1501 1500 1500 1500 1499 1499 1500 1499 1498 1499 1498 1497 1498 1496 1495 1499 1497 1494 1491 1487 1489 1491 1489 1488 1488 1486 1486 1479 1471 1472 1473 1472 1474 1472 1467 1464 1460 1458 1456 1454 1452 1450 1449 1448 1448
1518 1518 1519 1519 1519 1519 1518 1518 1518 1518 1518 1517 1517 1517 1517 1517 1517 1518 1517 1517 1517 1516 1516 1515 1515 1514 1513 1514 1515 1515 1514 1513 1511 1509 1507 1506 1506 1505 1504 1504 1503 1503 1502 1502 1502 1502 1501 1501 1501 1500 1500 1500 1500 1499 1499 1500 1498 1498 1498 1499 1505 1500 1488 1489 1493 1491 1489 1490 1488 1489 1489 1479 1473 1472 1472 1474 1473 1471 1467 1464 1462 1460 1458 1455 1453 1451 1448 1449
1519 1519 1520 1520 1520 1519 1519 1519 1518 1519 1518 1518 1518 1518 1518 1518 1518 1518 1518 1518 1517 1517 1516 1516 1515 1515 1515 1515 1516 1516 1514 1512 1510 1508 1507 1507 1506 1505 1505 1504 1503 1503 1503 1503 1503 1503 1502 1502 1502 1501 1502 1501 1499 1500 1501 1501 1502 1505 1500 1499 1510 1508 1496 1493 1494 1494 1493 1492 1490 1490 1491 1485 1478 1473 1472 1474 1473 1472 1471 1469 1468 1465 1463 1460 1456 1454 1450 1449
1520 1520 1520 1520 1521 1520 1520 1520 1519 1519 1519 1519 1519 1519 1519 1519 1519 1519 1519 1519 1518 1518 1517 1516 1516 1516 1516 1517 1517 1516 1514 1512 1510 1509 1508 1507 1506 1505 1505 1504 1504 1504 1504 1504 1504 1504 1503 1502 1502 1503 1504 1502 1504 1506 1502 1501 1506 1513 1512 1507 1510 1510 1506 1498 1492 1495 1497 1493 1492 1491 1493 1488 1479 1474 1473 1475 1474 1473 1472 1472 1472 1470 1468 1465 1462 1459 1455 1452
1521 1521 1521 1521 1521 1521 1521 1521 1521 1520 1520 1520 1520 1520 1520 1520 1520 1519 1519 1519 1519 1519 1518 1518 1517 1515 1516 1517 1517 1515 1514 1513 1512 1511 1509 1507 1507 1506 1505 1505 1505 1504 1505 1504 1504 1504 1503 1503 1504 1506 1508 1510 1514 1511 1503 1508 1513 1515 1519 1517 1514 1515 1513 1503 1493 1495 1497 1494 1493 1494 1495 1489 1481 1478 1478 1478 1477 1476 1475 1476 1475 1474 1471 1469 1466 1463 1461 1459
1521 1522 1522 1522 1522 1522 1522 1522 1522 1521 1521 1521 1521 1521 1521 1521 1521 1520 1519 1519 1519 1518 1518 1518 1516 1517 1520 1519 1519 1518 1516 1516 1513 1511 1509 1508 1507 1506 1506 1505 1504 1505 1505 1505 1505 1505 1504 1505 1507 1509 1512 1515 1520 1518 1513 1519 1522 1520 1521 1520 1519 1519 1516 1509 1501 1497 1496 1496 1495 1493 1491 1485 1481 1482 1482 1483 1482 1480 1481 1481 1478 1475 1473 1471 1469 1468 1466 1464
1522 1523 1523 1523 1523 1523 1523 1523 1523 1522 1523 1522 1522 1522 1522 1522 1522 1521 1521 1519 1519 1520 1522 1522 1520 1523 1526 1522 1521 1519 1517 1516 1514 1512 1510 1508 1507 1506 1506 1506 1505 1505 1506 1506 1507 1507 1507 1508 1510 1513 1518 1520 1524 1527 1525 1524 1525 1525 1526 1526 1524 1521 1515 1509 1504 1501 1501 1498 1490 1490 1490 1486 1483 1484 1487 1489 1486 1484 1484 1482 1479 1477 1475 1473 1472 1471 1469 1467
1523 1524 1524 1524 1524 1524 1524 1524 1524 1524 1524 1524 1524 1523 1523 1523 1523 1524 1523 1520 1522 1525 1528 1528 1525 1526 1527 1524 1522 1519 1518 1517 1515 1513 1509 1508 1507 1507 1507 1506 1506 1506 1509 1513 1512 1512 1512 1513 1520 1524 1525 1526 1527 1529 1529 1527 1528 1528 1528 1527 1525 1524 1516 1505 1502 1502 1503 1498 1487 1491 1496 1490 1488 1490 1494 1493 1486 1485 1486 1485 1484 1482 1480 1477 1476 1474 1471 1470
1525 1525 1525 1525 1525 1525 1525 1525 1525 1526 1525 1525 1525 1524 1524 1524 1523 1526 1525 1524 1527 1528 1528 1528 1528 1527 1526 1525 1523 1520 1519 1516 1514 1512 1510 1509 1507 1507 1508 1508 1509 1511 1516 1518 1516 1515 1514 1517 1525 1528 1528 1529 1528 1529 1529 1527 1529 1528 1526 1525 1521 1521 1513 1502 1502 1503 1503 1501 1491 1493 1495 1488 1491 1497 1497 1493 1487 1490 1493 1491 1490 1487 1485 1482 1479 1477 1474 1471
1526 1526 1526 1527 1527 1527 1527 1526 1527 1527 1527 1526 1526 1525 1526 1525 1525 1526 1525 1526 1529 1529 1529 1529 1528 1527 1526 1525 1524 1522 1519 1514 1512 1511 1511 1510 1508 1509 1512 1513 1514 1518 1521 1518 1516 1517 1518 1521 1526 1527 1528 1529 1528 1529 1528 1525 1526 1525 1525 1523 1516 1514 1508 1499 1500 1503 1504 1502 1493 1494 1495 1488 1494 1500 1497 1495 1493 1496 1498 1496 1496 1492 1488 1485 1483 1480 1476 1470
1527 1527 1528 1528 1528 1528 1528 1528 1528 1528 1528 1527 1527 1527 1527 1527 1527 1526 1526 1527 1529 1529 1529 1529 1528 1527 1526 1525 1524 1523 1520 1519 1519 1516 1514 1513 1512 1513 1515 1517 1519 1521 1523 1521 1519 1520 1522 1524 1526 1527 1528 1525 1525 1526 1526 1523 1522 1522 1522 1519 1512 1513 1513 1503 1498 1501 1503 1503 1497 1496 1494 1489 1495 1499 1496 1498 1498 1498 1499 1497 1496 1494 1492 1491 1489 1486 1480 1474
1528 1528 1529 1529 1529 1529 1528 1529 1529 1529 1529 1528 1528 1528 1528 1528 1527 1527 1527 1527 1528 1529 1530 1529 1529 1527 1527 1526 1526 1525 1523 1525 1525 1522 1520 1518 1516 1517 1519 1521 1522 1523 1526 1527 1525 1523 1524 1525 1526 1528 1527 1524 1523 1522 1524 1522 1519 1520 1519 1515 1511 1514 1518 1511 1504 1503 1500 1502 1502 1496 1486 1482 1492 1499 1497 1498 1499 1496 1497 1495 1493 1494 1494 1494 1492 1488 1484 1481
1529 1529 1530 1530 1529 1530 1529 1530 1529 1529 1529 1529 1529 1529 1528 1528 1527 1527 1527 1528 1530 1531 1530 1530 1530 1530 1530 1529 1528 1527 1526 1527 1528 1527 1524 1521 1520 1520 1522 1523 1523 1524 1527 1529 1527 1523 1524 1526 1526 1525 1524 1525 1523 1521 1524 1524 1521 1518 1513 1513 1514 1514 1515 1512 1511 1506 1493 1492 1497 1495 1486 1477 1483 1498 1500 1498 1498 1496 1496 1494 1493 1495 1494 1492 1491 1489 1487 1485
1530 1530 1530 1530 1531 1531 1530 1531 1530 1530 1530 1529 1529 1529 1528 1528 1527 1527 1528 1532 1535 1535 1533 1532 1533 1534 1533 1532 1529 1527 1527 1528 1530 1531 1527 1524 1523 1522 1523 1526 1526 1526 1528 1528 1526 1525 1525 1526 1527 1525 1524 1523 1521 1520 1523 1525 1524 1516 1511 1514 1516 1515 1513 1509 1511 1506 1492 1489 1494 1497 1493 1480 1476 1492 1502 1500 1501 1500 1497 1496 1496 1497 1495 1493 1493 1491 1488 1485
1531 1531 1531 1531 1532 1532 1531 1531 1531 1531 1530 1530 1530 1529 1528 1528 1528 1527 1528 1536 1543 1541 1539 1537 1537 1538 1537 1536 1532 1529 1533 1534 1532 1532 1529 1526 1526 1524 1525 1528 1529 1528 1530 1529 1526 1526 1526 1525 1525 1524 1524 1521 1519 1520 1521 1525 1523 1513 1511 1515 1513 1510 1508 1509 1511 1507 1501 1497 1496 1496 1496 1487 1477 1488 1502 1501 1500 1502 1500 1500 1500 1499 1498 1497 1496 1494 1490 1486
1531 1532 1532 1532 1532 1532 1532 1532 1531 1531 1530 1530 1530 1529 1529 1528 1528 1528 1530 1545 1553 1546 1544 1543 1541 1541 1540 1539 1537 1534 1540 1539 1534 1534 1532 1529 1527 1525 1527 1530 1530 1529 1530 1529 1525 1527 1527 1525 1525 1525 1524 1520 1518 1520 1522 1524 1520 1511 1511 1514 1510 1508 1508 1510 1509 1506 1510 1504 1490 1488 1495 1490 1476 1482 1500 1500 1499 1505 1504 1505 1505 1502 1502 1499 1497 1495 1491 1487
1532 1533 1533 1533 1533 1532 1533 1532 1532 1531 1531 1530 1529 1529 1529 1527 1528 1528 1532 1549 1556 1549 1548 1547 1542 1544 1542 1540 1539 1539 1541 1539 1538 1537 1534 1532 1530 1528 1530 1531 1532 1530 1530 1529 1527 1528 1527 1526 1527 1526 1524 1522 1519 1520 1521 1522 1518 1512 1512 1510 1507 1508 1510 1511 1508 1505 1508 1501 1485 1482 1491 1489 1474 1482 1503 1503 1504 1512 1510 1509 1508 1505 1504 1501 1498 1495 1491 1488
1533 1533 1533 1533 1533 1533 1533 1532 1532 1531 1531 1530 1529 1529 1529 1527 1529 1533 1542 1554 1556 1552 1551 1548 1547 1549 1547 1543 1541 1541 1542 1541 1541 1539 1535 1535 1533 1530 1532 1532 1531 1531 1530 1528 1526 1528 1529 1527 1528 1526 1525 1524 1522 1520 1519 1519 1519 1513 1512 1507 1500 1502 1507 1510 1510 1506 1499 1492 1483 1481 1491 1491 1481 1495 1516 1513 1513 1518 1514 1512 1510 1506 1505 1502 1499 1496 1492 1490
1534 1534 1534 1534 1533 1533 1533 1532 1532 1531 1530 1530 1529 1528 1528 1530 1534 1542 1554 1560 1557 1555 1553 1552 1554 1554 1553 1553 1549 1545 1545 1543 1542 1540 1537 1538 1536 1534 1534 1535 1536 1533 1532 1531 1526 1526 1527 1525 1526 1526 1525 1526 1525 1521 1518 1518 1520 1516 1514 1511 1502 1499 1501 1501 1502 1502 1498 1491 1484 1483 1493 1493 1486 1501 1519 1517 1516 1518 1515 1513 1510 1507 1506 1503 1501 1497 1494 1492
1534 1535 1534 1534 1534 1533 1532 1532 1531 1530 1530 1529 1529 1528 1528 1533 1544 1556 1564 1561 1557 1560 1561 1559 1560 1558 1559 1560 1556 1553 1550 1546 1545 1544 1545 1546 1546 1546 1545 1547 1547 1539 1538 1541 1536 1529 1525 1523 1525 1526 1525 1527 1526 1521 1517 1515 1517 1518 1517 1516 1513 1509 1508 1506 1503 1503 1503 1494 1484 1487 1496 1492 1492 1509 1517 1515 1516 1515 1514 1513 1510 1508 1506 1502 1501 1498 1495 1493
1536 1535 1535 1534 1534 1533 1532 1531 1530 1530 1530 1528 1528 1529 1529 1538 1555 1571 1572 1563 1561 1566 1567 1566 1564 1563 1563 1558 1555 1557 1554 1549 1548 1547 1549 1549 1549 1551 1552 1555 1554 1547 1546 1548 1546 1539 1529 1523 1524 1524 1525 1527 1526 1523 1521 1518 1518 1522 1523 1522 1521 1521 1525 1525 1516 1512 1509 1496 1484 1492 1499 1493 1499 1515 1516 1513 1515 1513 1513 1512 1510 1508 1506 1502 1500 1497 1495 1492
1536 1535 1535 1534 1533 1532 1531 1530 1530 1530 1529 1529 1528 1528 1532 1547 1567 1575 1573 1570 1570 1570 1570 1570 1567 1563 1562 1558 1559 1560 1554 1551 1551 1550 1548 1547 1548 1551 1553 1555 1555 1554 1551 1550 1553 1551 1541 1531 1525 1524 1527 1528 1527 1528 1529 1526 1523 1527 1529 1527 1524 1524 1531 1533 1523 1517 1514 1503 1493 1494 1494 1492 1498 1509 1513 1513 1513 1512 1512 1510 1509 1507 1504 1501 1497 1494 1491 1488
1537 1536 1535 1533 1532 1531 1530 1529 1529 1529 1529 1529 1531 1536 1546 1562 1576 1577 1574 1574 1575 1573 1571 1572 1568 1561 1558 1560 1563 1563 1557 1553 1552 1551 1549 1550 1553 1554 1556 1557 1558 1558 1554 1551 1555 1557 1551 1542 1530 1527 1530 1530 1528 1528 1529 1527 1524 1527 1530 1527 1525 1525 1528 1528 1522 1520 1522 1516 1508 1499 1494 1502 1511 1512 1513 1513 1511 1511 1510 1508 1506 1503 1500 1497 1494 1491 1488 1485
1537 1536 1535 1533 1533 1530 1529 1529 1529 1530 1531 1527 1533 1552 1567 1574 1578 1578 1577 1577 1577 1577 1573 1569 1567 1562 1559 1560 1561 1561 1561 1557 1554 1552 1550 1553 1558 1558 1560 1561 1561 1561 1558 1556 1558 1558 1554 1543 1531 1529 1529 1528 1530 1529 1529 1528 1524 1526 1527 1524 1526 1527 1526 1526 1523 1523 1524 1522 1513 1499 1494 1506 1515 1512 1513 1514 1510 1507 1505 1502 1499 1496 1494 1493 1490 1489 1487 1484
1537 1537 1535 1534 1533 1531 1531 1530 1530 1531 1530 1527 1540 1567 1581 1580 1580 1581 1580 1578 1579 1581 1574 1566 1568 1570 1569 1566 1561 1560 1561 1557 1556 1555 1552 1554 1557 1558 1561 1562 1562 1563 1562 1561 1560 1560 1560 1547 1533 1534 1531 1527 1531 1528 1527 1530 1528 1528 1528 1525 1526 1526 1524 1530 1532 1528 1526 1523 1511 1498 1496 1499 1498 1502 1510 1511 1505 1501 1498 1496 1493 1491 1490 1489 1487 1485 1483 1481
1538 1537 1535 1535 1534 1533 1533 1531 1533 1533 1528 1535 1558 1577 1582 1581 1580 1581 1581 1580 1580 1580 1574 1569 1572 1575 1576 1572 1565 1565 1565 1558 1557 1559 1557 1556 1556 1558 1562 1562 1562 1564 1563 1562 1559 1561 1565 1551 1534 1536 1536 1529 1530 1529 1526 1528 1529 1530 1530 1530 1531 1531 1530 1533 1536 1533 1532 1529 1516 1505 1502 1497 1491 1499 1509 1508 1503 1501 1498 1495 1493 1491 1489 1487 1484 1482 1480 1477
1539 1538 1538 1539 1537 1535 1535 1534 1536 1533 1530 1548 1572 1579 1580 1582 1581 1580 1581 1580 1580 1578 1574 1575 1577 1575 1576 1575 1570 1571 1571 1565 1564 1564 1560 1558 1558 1559 1563 1563 1563 1563 1562 1562 1562 1562 1565 1556 1539 1534 1537 1533 1529 1529 1528 1528 1530 1531 1532 1536 1538 1539 1539 1538 1536 1534 1534 1533 1525 1515 1507 1497 1496 1506 1511 1508 1505 1503 1500 1498 1496 1494 1490 1488 1485 1482 1479 1476
1539 1539 1541 1543 1540 1539 1539 1536 1535 1536 1543 1564 1578 1579 1580 1582 1581 1581 1581 1580 1579 1578 1576 1579 1579 1576 1575 1576 1575 1575 1574 1571 1571 1567 1563 1563 1561 1560 1565 1566 1564 1564 1562 1562 1564 1563 1563 1562 1548 1533 1533 1535 1532 1532 1532 1532 1534 1534 1538 1547 1549 1546 1544 1542 1538 1534 1535 1538 1534 1525 1511 1497 1500 1510 1509 1506 1505 1503 1501 1499 1497 1495 1492 1489 1486 1483 1480 1476
1540 1541 1544 1544 1542 1543 1542 1540 1544 1551 1562 1574 1578 1579 1582 1581 1580 1581 1580 1579 1579 1578 1578 1579 1579 1578 1577 1576 1576 1578 1576 1573 1572 1569 1566 1566 1563 1562 1566 1568 1566 1565 1563 1561 1564 1564 1563 1564 1558 1544 1538 1537 1534 1533 1534 1536 1540 1542 1545 1554 1557 1553 1550 1549 1545 1537 1538 1541 1536 1529 1517 1501 1500 1508 1507 1506 1505 1502 1501 1499 1496 1494 1491 1487 1485 1483 1480 1475
1540 1544 1547 1545 1543 1544 1542 1548 1560 1565 1570 1577 1579 1580 1582 1581 1581 1581 1579 1579 1579 1578 1578 1579 1580 1580 1581 1579 1577 1580 1578 1573 1570 1568 1567 1567 1566 1565 1568 1569 1568 1566 1564 1564 1566 1566 1565 1566 1564 1552 1541 1537 1535 1535 1538 1540 1542 1547 1553 1556 1557 1556 1555 1557 1553 1544 1544 1541 1532 1532 1526 1508 1501 1506 1506 1506 1504 1502 1501 1499 1496 1492 1487 1485 1483 1479 1475 1471
1543 1547 1549 1547 1547 1546 1545 1556 1570 1572 1575 1580 1581 1581 1581 1581 1581 1580 1580 1580 1579 1579 1578 1579 1581 1580 1581 1581 1580 1580 1577 1572 1569 1567 1567 1568 1569 1569 1570 1570 1568 1566 1565 1566 1566 1566 1565 1565 1562 1549 1536 1531 1530 1534 1540 1540 1540 1548 1557 1560 1561 1561 1560 1558 1553 1550 1551 1543 1538 1544 1534 1508 1500 1506 1506 1505 1504 1501 1500 1498 1494 1489 1485 1483 1480 1476 1471 1466
1547 1549 1550 1548 1548 1547 1549 1561 1572 1575 1579 1581 1580 1581 1581 1581 1582 1581 1581 1580 1580 1581 1580 1580 1582 1580 1581 1583 1581 1580 1578 1572 1570 1570 1570 1570 1569 1570 1571 1570 1568 1567 1566 1566 1566 1565 1562 1562 1562 1557 1549 1541 1534 1535 1539 1537 1540 1553 1562 1563 1563 1562 1561 1558 1554 1556 1554 1543 1543 1552 1535 1507 1501 1506 1505 1504 1501 1500 1499 1496 1492 1488 1483 1480 1476 1472 1468 1463
1548 1550 1552 1552 1550 1550 1556 1566 1571 1574 1579 1580 1580 1583 1582 1581 1582 1582 1582 1582 1582 1583 1582 1582 1582 1581 1582 1583 1580 1581 1581 1577 1574 1573 1573 1571 1569 1570 1571 1569 1569 1569 1568 1568 1568 1566 1564 1563 1564 1563 1565 1565 1558 1552 1547 1541 1544 1554 1561 1564 1563 1562 1561 1559 1559 1561 1555 1544 1544 1548 1532 1510 1504 1507 1505 1503 1501 1499 1497 1493 1490 1486 1482 1477 1473 1468 1464 1459
1550 1554 1558 1558 1556 1556 1563 1571 1571 1572 1578 1578 1579 1584 1584 1582 1583 1583 1583 1583 1583 1584 1583 1583 1582 1581 1582 1581 1579 1579 1580 1581 1579 1576 1574 1571 1569 1571 1571 1569 1569 1568 1568 1568 1567 1566 1567 1568 1565 1562 1563 1566 1562 1555 1549 1548 1550 1553 1559 1565 1564 1563 1563 1561 1563 1563 1557 1550 1544 1538 1528 1515 1507 1506 1505 1502 1501 1499 1493 1489 1487 1483 1478 1475 1471 1466 1461 1456
1553 1559 1564 1563 1562 1564 1568 1572 1572 1573 1576 1576 1579 1585 1586 1584 1584 1584 1583 1584 1584 1584 1583 1583 1583 1582 1582 1582 1581 1579 1579 1580 1580 1577 1576 1574 1571 1571 1571 1570 1569 1568 1567 1567 1566 1568 1568 1566 1565 1565 1562 1560 1558 1553 1550 1553 1555 1556 1562 1566 1565 1564 1563 1563 1565 1562 1556 1553 1541 1528 1526 1521 1511 1505 1504 1501 1501 1497 1491 1488 1485 1480 1476 1473 1468 1463 1457 1451
1556 1563 1567 1565 1566 1571 1573 1574 1575 1575 1576 1577 1582 1587 1587 1586 1586 1585 1584 1584 1584 1583 1582 1582 1584 1586 1587 1587 1585 1582 1581 1580 1577 1575 1577 1577 1574 1572 1569 1568 1568 1567 1567 1567 1566 1569 1569 1565 1566 1568 1565 1561 1559 1555 1554 1555 1557 1560 1565 1565 1563 1564 1563 1562 1563 1558 1554 1552 1541 1528 1526 1523 1513 1506 1504 1502 1500 1495 1490 1487 1482 1477 1473 1469 1464 1458 1451 1446
1558 1563 1567 1567 1570 1575 1577 1577 1577 1577 1577 1579 1584 1588 1588 1587 1587 1588 1588 1586 1583 1584 1583 1582 1584 1587 1589 1589 1587 1585 1584 1583 1580 1578 1578 1578 1576 1574 1569 1566 1565 1566 1567 1568 1568 1571 1568 1563 1565 1568 1567 1563 1558 1555 1556 1555 1556 1562 1565 1564 1562 1561 1561 1561 1559 1554 1550 1546 1538 1530 1526 1521 1513 1508 1504 1502 1499 1493 1488 1483 1478 1472 1467 1464 1459 1453 1446 1442
1559 1561 1565 1567 1571 1576 1578 1578 1578 1577 1579 1581 1583 1587 1590 1588 1587 1589 1589 1587 1584 1585 1586 1584 1586 1587 1588 1589 1588 1585 1584 1584 1583 1581 1580 1579 1577 1575 1572 1569 1568 1568 1568 1569 1572 1571 1567 1564 1566 1569 1566 1559 1554 1555 1555 1553 1555 1561 1563 1562 1561 1559 1557 1557 1554 1550 1546 1541 1534 1530 1525 1516 1511 1508 1505 1500 1496 1489 1483 1479 1474 1467 1462 1459 1455 1448 1443 1440
1559 1562 1564 1565 1572 1579 1579 1579 1580 1579 1581 1584 1584 1587 1589 1588 1588 1588 1588 1588 1587 1587 1587 1587 1587 1587 1587 1587 1586 1583 1581 1581 1580 1578 1578 1578 1576 1574 1572 1572 1573 1573 1571 1574 1576 1574 1573 1570 1568 1571 1567 1555 1550 1553 1553 1553 1556 1561 1563 1562 1561 1559 1556 1553 1551 1549 1544 1537 1530 1527 1523 1514 1508 1507 1504 1499 1493 1487 1481 1478 1473 1466 1459 1454 1450 1445 1440 1438
1561 1564 1564 1563 1572 1582 1581 1581 1582 1579 1582 1587 1587 1588 1588 1587 1589 1589 1586 1586 1587 1587 1587 1587 1587 1586 1585 1583 1581 1579 1578 1577 1576 1574 1573 1574 1574 1573 1572 1573 1575 1576 1576 1579 1580 1581 1583 1578 1573 1576 1571 1557 1552 1555 1553 1551 1552 1554 1559 1562 1561 1558 1554 1549 1546 1546 1542 1537 1531 1525 1519 1512 1507 1505 1501 1495 1490 1484 1478 1474 1471 1466 1458 1450 1446 1443 1439 1435